Total_Precipitation_Accumulation
0.00 0.01 0.08 0.16 0.26 0.52 0.67 0.42 0.27 0.15 0.11 0.11 0.08 0.06 0.08 0.07 0.07 0.18 0.07 0.02 0.01 0.00 0.00 0.01 0.01 0.01 0.02 0.03 0.05 0.06 0.06 0.06 0.05 0.05 0.04 0.03 0.03 0.02 0.01 0.01 0.01 0.01 0.01 0.02 0.02 0.02 0.02 0.01 0.02
0.00 0.02 0.10 0.17 0.36 0.92 0.74 0.32 0.16 0.10 0.16 0.16 0.08 0.05 0.05 0.04 0.03 0.03 0.04 0.03 0.01 0.00 0.00 0.01 0.01 0.01 0.01 0.03 0.04 0.06 0.07 0.08 0.07 0.07 0.05 0.04 0.04 0.03 0.02 0.01 0.01 0.02 0.02 0.02 0.02 0.02 0.01 0.01 0.01
0.00 0.02 0.09 0.16 0.38 0.75 0.41 0.16 0.09 0.10 0.21 0.21 0.13 0.08 0.05 0.04 0.03 0.03 0.03 0.02 0.01 0.00 0.01 0.01 0.01 0.01 0.01 0.02 0.03 0.05 0.07 0.08 0.09 0.07 0.05 0.05 0.05 0.04 0.04 0.03 0.02 0.02 0.03 0.02 0.02 0.02 0.01 0.01 0.01
0.00 0.02 0.06 0.15 0.34 0.44 0.23 0.12 0.09 0.12 0.24 0.20 0.16 0.17 0.11 0.05 0.04 0.03 0.02 0.02 0.01 0.01 0.01 0.01 0.02 0.01 0.02 0.02 0.03 0.04 0.06 0.07 0.08 0.07 0.06 0.05 0.06 0.06 0.05 0.03 0.03 0.03 0.03 0.03 0.04 0.02 0.02 0.01 0.01
0.00 0.03 0.07 0.15 0.25 0.24 0.18 0.13 0.13 0.12 0.12 0.18 0.21 0.24 0.14 0.08 0.06 0.05 0.03 0.02 0.01 0.01 0.01 0.01 0.02 0.01 0.02 0.02 0.02 0.03 0.05 0.06 0.06 0.06 0.06 0.05 0.05 0.05 0.04 0.04 0.04 0.04 0.04 0.04 0.05 0.04 0.03 0.02 0.01
0.00 0.03 0.05 0.08 0.11 0.12 0.14 0.13 0.12 0.13 0.16 0.24 0.30 0.25 0.18 0.12 0.10 0.12 0.08 0.04 0.03 0.02 0.01 0.02 0.03 0.02 0.02 0.02 0.03 0.04 0.05 0.05 0.06 0.06 0.06 0.06 0.06 0.06 0.05 0.05 0.05 0.06 0.06 0.06 0.05 0.06 0.05 0.04 0.03
0.00 0.01 0.02 0.03 0.05 0.10 0.09 0.08 0.10 0.12 0.25 0.31 0.33 0.34 0.29 0.21 0.16 0.13 0.10 0.09 0.06 0.05 0.05 0.05 0.05 0.04 0.04 0.04 0.05 0.05 0.07 0.08 0.09 0.08 0.08 0.08 0.08 0.08 0.08 0.08 0.09 0.10 0.11 0.11 0.08 0.06 0.08 0.08 0.06
0.00 0.00 0.00 0.01 0.01 0.04 0.04 0.04 0.09 0.13 0.21 0.35 0.42 0.44 0.47 0.32 0.21 0.12 0.14 0.17 0.12 0.09 0.14 0.14 0.09 0.09 0.08 0.06 0.07 0.08 0.10 0.10 0.11 0.10 0.10 0.09 0.09 0.10 0.12 0.13 0.17 0.20 0.23 0.23 0.19 0.14 0.14 0.16 0.14
0.00 0.00 0.00 0.00 0.01 0.01 0.01 0.02 0.06 0.14 0.21 0.27 0.41 0.49 0.38 0.27 0.31 0.20 0.19 0.29 0.30 0.22 0.28 0.28 0.15 0.11 0.09 0.10 0.11 0.14 0.14 0.15 0.14 0.17 0.16 0.16 0.18 0.25 0.38 0.36 0.45 0.40 0.44 0.43 0.40 0.36 0.37 0.40 0.30
0.00 0.00 0.00 0.00 0.00 0.00 0.01 0.02 0.08 0.22 0.36 0.52 0.67 0.62 0.40 0.34 0.48 0.41 0.35 0.48 0.49 0.35 0.44 0.35 0.21 0.17 0.17 0.14 0.18 0.21 0.24 0.37 0.35 0.44 0.52 0.55 0.61 0.55 0.44 0.61 0.79 0.84 0.87 0.84 0.84 0.93 0.87 0.72 0.55
0.00 0.00 0.00 0.00 0.00 0.00 0.00 0.02 0.06 0.17 0.55 0.93 1.09 1.00 0.73 0.48 0.50 0.50 0.55 0.81 0.68 0.44 0.32 0.34 0.28 0.27 0.23 0.22 0.25 0.33 0.44 0.75 0.66 0.61 0.75 0.92 0.84 0.62 0.50 0.63 0.89 1.14 1.17 1.08 1.26 1.49 1.16 1.09 1.15
0.00 0.00 0.00 0.00 0.00 0.00 0.01 0.03 0.11 0.21 0.57 0.79 0.96 1.05 0.94 0.74 0.60 0.55 0.67 0.69 0.71 0.68 0.62 0.52 0.49 0.44 0.49 0.51 0.46 0.42 0.52 0.71 0.71 0.80 0.76 1.00 1.01 0.84 0.77 0.85 0.99 1.21 1.39 1.65 1.68 1.82 1.75 1.71 1.58
0.00 0.00 0.00 0.00 0.00 0.00 0.01 0.05 0.15 0.26 0.50 0.52 0.58 0.69 0.79 0.86 0.98 0.96 0.94 0.94 0.89 0.85 0.82 0.86 0.87 0.87 0.92 0.84 0.76 0.62 0.66 0.70 0.75 0.92 0.95 1.06 1.23 1.23 1.28 1.27 1.23 1.21 1.55 1.94 2.10 1.92 2.13 2.20 1.91
0.00 0.00 0.00 0.00 0.00 0.01 0.02 0.07 0.17 0.30 0.42 0.47 0.48 0.58 0.75 0.89 0.99 1.11 1.07 1.16 1.08 1.02 1.10 1.33 1.38 1.39 1.42 1.43 1.37 1.21 1.13 1.16 1.16 1.24 1.39 1.51 1.62 1.77 1.77 1.68 1.58 1.42 1.50 1.80 2.00 2.03 2.23 2.11 2.02
0.00 0.01 0.04 0.03 0.02 0.03 0.08 0.16 0.32 0.44 0.47 0.60 0.62 0.73 0.83 0.97 1.12 1.04 1.02 1.12 1.18 1.24 1.53 1.83 1.98 2.09 2.13 2.15 2.03 1.80 1.65 1.75 1.92 1.93 2.02 2.02 2.05 2.21 2.12 1.90 1.67 1.63 1.71 1.80 1.80 1.82 1.94 1.78 1.69
0.00 0.02 0.09 0.08 0.05 0.06 0.10 0.35 0.48 0.52 0.60 0.71 0.69 0.83 0.97 0.86 1.01 0.98 0.96 1.17 1.44 1.68 2.04 2.34 2.54 2.76 2.90 2.87 2.62 2.26 2.09 2.12 2.19 2.26 2.24 2.23 2.24 2.20 2.14 1.83 1.55 1.66 1.76 1.74 1.70 1.60 1.69 1.65 1.66
0.02 0.04 0.09 0.15 0.08 0.10 0.17 0.45 0.56 0.57 0.71 0.79 0.84 0.79 0.81 0.87 1.03 1.10 1.11 1.26 1.55 1.91 2.41 2.90 3.29 3.62 3.80 3.48 2.86 2.51 2.43 2.42 2.38 2.40 2.27 2.16 2.06 1.99 2.10 1.79 1.64 1.69 1.64 1.53 1.47 1.62 1.79 1.70 1.68
0.02 0.03 0.09 0.19 0.12 0.12 0.23 0.44 0.64 0.70 0.80 0.95 0.91 0.80 0.72 0.75 0.86 1.00 1.04 1.28 1.60 1.92 2.52 3.24 3.87 4.10 3.92 3.32 2.79 2.66 2.55 2.36 2.19 1.96 1.78 1.65 1.66 1.66 1.76 1.56 1.50 1.60 1.56 1.42 1.49 1.64 1.75 1.54 1.60
0.02 0.04 0.11 0.18 0.11 0.13 0.26 0.43 0.64 0.78 0.87 0.93 1.05 0.94 0.85 0.89 0.97 1.10 1.21 1.38 1.71 2.10 2.65 3.24 3.70 3.74 3.49 3.13 2.74 2.49 2.16 1.93 1.69 1.43 1.24 1.16 1.14 1.20 1.36 1.22 1.31 1.38 1.32 1.25 1.27 1.35 1.38 1.21 1.46
0.04 0.07 0.15 0.18 0.11 0.12 0.28 0.47 0.71 0.75 0.72 0.74 0.91 0.91 0.82 0.86 0.96 1.08 1.28 1.45 1.62 1.99 2.38 2.66 2.58 2.33 2.17 2.08 1.95 1.69 1.65 1.64 1.58 1.47 1.27 1.08 1.08 1.07 1.02 1.02 1.04 1.10 1.13 1.03 1.01 1.14 1.11 0.95 1.21
0.05 0.06 0.12 0.18 0.20 0.20 0.30 0.60 0.79 0.76 0.67 0.62 0.64 0.68 0.67 0.70 0.81 0.98 1.21 1.37 1.39 1.58 1.71 1.64 1.38 1.12 1.08 1.10 1.05 1.18 1.36 1.48 1.53 1.55 1.46 1.29 1.23 1.20 1.14 1.04 0.97 0.94 0.97 0.97 0.95 1.03 1.03 0.91 0.96
0.08 0.05 0.06 0.08 0.18 0.39 0.43 0.75 0.95 0.93 0.89 0.70 0.61 0.65 0.64 0.61 0.61 0.79 0.95 0.97 1.02 1.05 0.92 0.80 0.70 0.60 0.57 0.57 0.63 0.71 0.90 1.20 1.41 1.58 1.63 1.63 1.54 1.38 1.25 1.13 0.95 0.82 0.80 0.84 0.78 0.85 0.96 0.97 0.86
0.05 0.04 0.05 0.08 0.13 0.26 0.34 0.56 0.91 1.04 1.17 0.80 0.61 0.60 0.54 0.56 0.65 0.67 0.62 0.55 0.56 0.55 0.47 0.42 0.45 0.46 0.47 0.48 0.59 0.62 0.58 0.65 0.66 0.74 0.88 1.03 1.15 1.11 0.97 0.91 0.84 0.75 0.69 0.68 0.72 0.83 0.92 0.95 0.87
0.05 0.09 0.14 0.22 0.30 0.44 0.43 0.50 0.78 0.89 0.92 0.60 0.50 0.58 0.48 0.42 0.46 0.45 0.38 0.34 0.33 0.33 0.29 0.35 0.43 0.53 0.53 0.54 0.58 0.58 0.56 0.62 0.61 0.62 0.65 0.64 0.67 0.69 0.67 0.66 0.68 0.67 0.66 0.66 0.66 0.72 0.81 0.90 0.95
0.07 0.14 0.41 0.71 0.93 0.91 0.51 0.51 0.68 0.60 0.58 0.59 0.51 0.50 0.46 0.36 0.33 0.25 0.22 0.22 0.19 0.18 0.17 0.19 0.28 0.38 0.38 0.40 0.46 0.49 0.56 0.59 0.54 0.50 0.47 0.46 0.45 0.48 0.52 0.56 0.61 0.61 0.66 0.72 0.78 0.79 0.79 0.87 0.98
0.06 0.10 0.27 0.44 0.56 0.64 0.47 0.71 0.74 0.54 0.51 0.45 0.35 0.30 0.33 0.23 0.18 0.13 0.10 0.10 0.10 0.10 0.11 0.10 0.13 0.17 0.22 0.28 0.37 0.50 0.67 0.73 0.68 0.66 0.54 0.50 0.48 0.47 0.51 0.58 0.64 0.64 0.66 0.67 0.77 0.82 0.88 0.96 0.99
0.07 0.06 0.09 0.14 0.25 0.43 0.55 0.69 0.60 0.43 0.44 0.36 0.24 0.16 0.15 0.12 0.09 0.06 0.06 0.06 0.05 0.05 0.06 0.06 0.08 0.11 0.19 0.25 0.32 0.37 0.43 0.50 0.51 0.52 0.52 0.49 0.55 0.50 0.55 0.63 0.72 0.75 0.76 0.79 0.83 0.84 0.94 1.12 1.19
0.07 0.06 0.06 0.08 0.17 0.27 0.46 0.69 0.64 0.49 0.47 0.37 0.24 0.14 0.09 0.07 0.05 0.03 0.03 0.03 0.03 0.04 0.06 0.08 0.07 0.14 0.28 0.40 0.46 0.36 0.29 0.27 0.34 0.43 0.50 0.52 0.55 0.56 0.60 0.65 0.68 0.73 0.75 0.79 0.84 0.89 1.00 1.16 1.22
0.10 0.09 0.08 0.08 0.09 0.17 0.34 0.46 0.36 0.31 0.28 0.25 0.18 0.12 0.10 0.07 0.03 0.02 0.01 0.02 0.03 0.06 0.09 0.19 0.24 0.31 0.43 0.58 0.66 0.55 0.38 0.31 0.32 0.36 0.35 0.38 0.46 0.56 0.63 0.60 0.54 0.51 0.57 0.70 0.85 0.92 1.00 1.09 1.13
0.10 0.10 0.09 0.10 0.09 0.11 0.17 0.27 0.17 0.14 0.12 0.10 0.08 0.06 0.04 0.02 0.01 0.01 0.01 0.01 0.03 0.05 0.15 0.38 0.63 0.89 0.95 1.03 1.11 0.96 0.58 0.37 0.30 0.25 0.24 0.30 0.43 0.53 0.59 0.56 0.51 0.49 0.56 0.69 0.84 0.99 1.20 1.33 1.29